TimeEST,TemperatureF,Dew PointF,Humidity,Sea Level PressureIn,VisibilityMPH,Wind Direction,Wind SpeedMPH,Gust SpeedMPH,PrecipitationIn,Events,Conditions,WindDirDegrees,DateUTC
12:15 AM,34.0,32.2,93,29.53,0.8,WNW,3.5,-,N/A,,Overcast,290,2013-02-28 05:15:00
12:54 AM,33.8,32.0,93,29.53,2.0,NNW,5.8,-,N/A,Snow,Light Snow,330,2013-02-28 05:54:00
1:15 AM,33.6,32.0,94,29.53,1.8,NNW,5.8,-,N/A,,Overcast,330,2013-02-28 06:15:00
1:34 AM,33.8,32.0,93,29.54,1.5,NNW,8.1,-,N/A,,Overcast,340,2013-02-28 06:34:00
1:55 AM,33.1,31.6,94,29.54,2.5,North,5.8,-,N/A,,Overcast,350,2013-02-28 06:55:00
2:14 AM,33.1,31.8,95,29.54,7.0,Calm,Calm,-,N/A,,Overcast,0,2013-02-28 07:14:00
2:34 AM,33.1,31.8,95,29.54,7.0,North,5.8,-,N/A,,Overcast,350,2013-02-28 07:34:00
2:54 AM,33.3,31.8,94,29.54,7.0,NNW,10.4,-,N/A,,Overcast,330,2013-02-28 07:54:00
3:14 AM,33.3,31.8,94,29.55,7.0,NNW,5.8,-,N/A,,Overcast,340,2013-02-28 08:14:00
3:35 AM,33.3,31.8,94,29.55,4.0,NNW,6.9,-,N/A,,Overcast,340,2013-02-28 08:35:00
3:54 AM,33.4,32.0,94,29.55,4.0,NNW,6.9,-,N/A,,Overcast,340,2013-02-28 08:54:00
4:14 AM,33.4,32.0,94,29.55,1.8,NNW,9.2,-,N/A,Snow,Light Snow,330,2013-02-28 09:14:00
4:35 AM,33.8,32.0,93,29.56,2.5,NNW,8.1,-,N/A,Snow,Light Snow,330,2013-02-28 09:35:00
4:54 AM,33.6,31.8,93,29.56,3.0,NNW,8.1,16.1,N/A,Snow,Light Snow,330,2013-02-28 09:54:00
5:15 AM,33.6,31.8,93,29.57,2.5,NNW,9.2,-,N/A,Snow,Light Snow,330,2013-02-28 10:15:00
5:34 AM,33.4,31.8,94,29.58,2.0,NNW,10.4,17.3,N/A,Snow,Light Snow,330,2013-02-28 10:34:00
5:54 AM,33.3,31.5,93,29.59,3.0,NNW,11.5,-,N/A,Snow,Light Snow,330,2013-02-28 10:54:00
6:15 AM,33.1,31.1,92,29.59,2.0,NNW,10.4,-,N/A,Snow,Light Snow,340,2013-02-28 11:15:00
6:34 AM,33.1,31.1,92,29.60,4.0,NNW,10.4,16.1,N/A,Snow,Light Snow,330,2013-02-28 11:34:00
6:54 AM,33.3,31.1,92,29.61,3.0,NNW,9.2,-,N/A,Snow,Light Snow,330,2013-02-28 11:54:00
7:15 AM,33.1,31.1,92,29.62,3.0,NNW,10.4,-,N/A,Snow,Light Snow,330,2013-02-28 12:15:00
7:34 AM,33.3,31.1,92,29.62,3.0,NNW,10.4,17.3,N/A,,Overcast,330,2013-02-28 12:34:00
7:54 AM,33.3,31.1,92,29.63,1.5,NNW,9.2,-,N/A,Snow,Light Snow,340,2013-02-28 12:54:00
8:14 AM,33.3,31.3,92,29.64,1.8,NNW,10.4,17.3,N/A,Snow,Light Snow,340,2013-02-28 13:14:00
8:34 AM,33.3,31.3,92,29.65,2.5,NNW,9.2,17.3,N/A,,Overcast,340,2013-02-28 13:34:00
8:55 AM,33.6,31.5,92,29.65,7.0,North,9.2,-,N/A,,Overcast,350,2013-02-28 13:55:00
9:14 AM,33.8,31.5,91,29.66,2.5,North,10.4,17.3,N/A,,Overcast,350,2013-02-28 14:14:00
9:34 AM,33.8,31.6,92,29.67,5.0,North,6.9,-,N/A,,Overcast,350,2013-02-28 14:34:00
9:55 AM,34.0,31.6,91,29.68,1.2,North,10.4,16.1,N/A,Snow,Light Snow,350,2013-02-28 14:55:00
10:14 AM,33.8,31.6,92,29.68,1.2,North,10.4,17.3,N/A,Snow,Light Snow,350,2013-02-28 15:14:00
10:34 AM,34.0,31.8,92,29.69,1.8,North,10.4,-,N/A,Snow,Light Snow,350,2013-02-28 15:34:00
10:55 AM,33.8,31.8,92,29.70,1.5,North,8.1,-,N/A,Snow,Light Snow,350,2013-02-28 15:55:00
11:14 AM,34.0,31.6,91,29.71,7.0,North,8.1,18.4,N/A,,Overcast,350,2013-02-28 16:14:00
11:34 AM,34.5,31.5,89,29.72,4.0,North,13.8,17.3,N/A,,Overcast,350,2013-02-28 16:34:00
11:55 AM,33.8,31.1,90,29.73,0.8,North,6.9,-,N/A,Snow,Light Snow,10,2013-02-28 16:55:00
12:14 PM,34.2,31.1,89,29.73,7.0,North,8.1,-,N/A,Rain,Light Rain,360,2013-02-28 17:14:00
12:35 PM,34.3,29.7,83,29.74,10.0,North,13.8,19.6,N/A,,Overcast,350,2013-02-28 17:35:00
12:54 PM,34.9,28.9,79,29.74,10.0,North,8.1,17.3,N/A,,Overcast,360,2013-02-28 17:54:00
1:14 PM,33.6,29.1,84,29.75,1.5,North,8.1,17.3,N/A,Snow,Light Snow,350,2013-02-28 18:14:00
1:35 PM,34.3,29.1,81,29.75,10.0,North,10.4,16.1,N/A,,Overcast,350,2013-02-28 18:35:00
1:54 PM,33.8,28.9,82,29.76,2.5,North,9.2,18.4,N/A,Snow,Light Snow,350,2013-02-28 18:54:00
2:15 PM,33.8,27.7,78,29.76,10.0,North,11.5,20.7,N/A,,Overcast,360,2013-02-28 19:15:00
2:34 PM,34.0,27.3,77,29.77,10.0,North,10.4,19.6,N/A,,Overcast,360,2013-02-28 19:34:00
2:54 PM,33.8,27.1,77,29.78,10.0,North,11.5,18.4,N/A,,Overcast,360,2013-02-28 19:54:00
3:14 PM,33.4,26.8,77,29.78,10.0,North,6.9,-,N/A,,Overcast,360,2013-02-28 20:14:00
3:34 PM,33.4,26.2,75,29.80,10.0,North,6.9,19.6,N/A,,Overcast,360,2013-02-28 20:34:00
3:55 PM,33.6,26.4,75,29.80,10.0,North,9.2,-,N/A,,Overcast,350,2013-02-28 20:55:00
4:14 PM,33.4,26.2,75,29.81,10.0,North,8.1,-,N/A,,Overcast,360,2013-02-28 21:14:00
4:34 PM,32.9,26.2,76,29.81,10.0,North,6.9,-,N/A,,Overcast,10,2013-02-28 21:34:00
4:54 PM,32.7,26.6,78,29.82,10.0,North,8.1,-,N/A,,Overcast,360,2013-02-28 21:54:00
5:14 PM,32.4,26.6,79,29.83,7.0,North,9.2,-,N/A,,Overcast,350,2013-02-28 22:14:00
5:35 PM,32.0,27.5,83,29.84,10.0,NNE,4.6,-,N/A,,Overcast,20,2013-02-28 22:35:00
5:54 PM,32.0,27.5,83,29.85,10.0,North,4.6,-,N/A,,Overcast,10,2013-02-28 22:54:00
6:14 PM,32.0,27.3,83,29.86,10.0,North,6.9,-,N/A,,Overcast,360,2013-02-28 23:14:00
6:35 PM,32.0,27.0,82,29.87,10.0,NNW,4.6,-,N/A,,Overcast,340,2013-02-28 23:35:00
6:54 PM,32.0,26.8,81,29.88,10.0,North,5.8,-,N/A,,Overcast,10,2013-02-28 23:54:00
7:14 PM,32.0,26.6,80,29.88,10.0,NNE,4.6,-,N/A,,Overcast,20,2013-03-01 00:14:00
7:35 PM,32.0,26.2,79,29.89,10.0,North,5.8,-,N/A,,Overcast,10,2013-03-01 00:35:00
7:54 PM,31.8,26.2,80,29.90,10.0,North,5.8,-,N/A,,Overcast,360,2013-03-01 00:54:00
8:14 PM,31.6,26.2,80,29.91,10.0,North,4.6,-,N/A,,Overcast,360,2013-03-01 01:14:00
8:35 PM,31.5,26.2,81,29.91,10.0,North,8.1,-,N/A,,Overcast,360,2013-03-01 01:35:00
8:54 PM,31.1,25.7,80,29.92,10.0,North,6.9,-,N/A,,Overcast,360,2013-03-01 01:54:00
9:14 PM,31.1,25.2,79,29.93,10.0,North,9.2,-,N/A,,Overcast,360,2013-03-01 02:14:00
9:35 PM,30.9,24.8,78,29.93,10.0,North,4.6,-,N/A,,Overcast,360,2013-03-01 02:35:00
9:54 PM,30.6,23.9,76,29.94,10.0,North,5.8,-,N/A,,Overcast,10,2013-03-01 02:54:00
10:15 PM,30.2,23.5,76,29.94,10.0,North,8.1,-,N/A,,Overcast,360,2013-03-01 03:15:00
10:34 PM,30.2,23.7,77,29.95,10.0,North,8.1,-,N/A,,Overcast,10,2013-03-01 03:34:00
10:54 PM,30.2,23.5,76,29.95,10.0,North,6.9,-,N/A,,Overcast,10,2013-03-01 03:54:00
11:15 PM,29.8,23.0,76,29.95,10.0,North,8.1,-,N/A,,Overcast,10,2013-03-01 04:15:00
11:54 PM,29.7,23.0,76,29.95,10.0,North,4.6,-,N/A,,Overcast,360,2013-03-01 04:54:00